Details for Ryanair at LPPD




Go Back


Latest METAR
Local Time

LPPD 181300Z VRB03KT 9999 FEW022 25/18 Q1019
18/09/2018, 13:30:03

Description
Results
Ryanair Logo
Number of Pilots based at LPPD
0 Pilots Based here
Number of Ryanair Flights Departed from LPPD
1 Flights Departed
Number of Ryanair Flights Arrived at LPPD
3 Flights Arrived
Number of Ryanair Schedules Departing from LPPD
8 Schedules
Number of Ryanair Schedules Arriving at LPPD
9 Schedules
Number of Ryanair Schedules Departing from LPPD availible today
3 Schedules Today
Number of Ryanair Schedules Arriving at LPPD availible today
3 Schedules Today
Average Landing Rate at LPPD
-150 fpm
Ryanair Average Landing Rate at LPPD
-154 fpm
Total Fuel Purchased at LPPD by Ryanair
4,921.00 kgs / 10,848.84 lbs

Pilots Based at LPPD


Pilot ID
Pilot Name
Pilot Rank
No. of Flights
No. of Flying Hours
There are no pilots assigned to this hub!   Will you be the first?
Content